Houston Hull, TX

1:40 PM CDT on October 23, 2019 (GMT -0500)
Sugar Land Municipal-Hull

Weather History for KSGR - August, 2019

Change the Weather History Date:

Wednesday, August 28, 2019

  Actual Average Record
Temperature  
Mean Temperature 86 °F -  
Max Temperature 98 °F 92 °F 102 °F (1990)
Min Temperature 75 °F 72 °F 32 °F (1997)
Cooling Degree Days 22    
Growing Degree Days 36 (Base 50)    
Moisture  
Dew Point 76 °F    
Average Humidity 81    
Maximum Humidity 100    
Minimum Humidity 46    
Precipitation  
Precipitation 0.00 in - - ()
Sea Level Pressure  
Sea Level Pressure 30.00 in    
Wind  
Wind Speed 2 mph ()    
Max Wind Speed 12 mph    
Max Gust Speed -    
Visibility 8.7 miles    
Events Rain , Thunderstorm    
Averages and records for this station are not official NWS values.
T = Trace of Precipitation, MM = Missing Value Source: Averaged Metar Reports

Daily Weather History Graph

Daily Weather History Graph

Search for Another Location

Airport or City:

Astronomy

Aug. 28, 2019 Rise Set
Actual Time 6:57 AM CDT 7:49 PM CDT
Civil Twilight 6:33 AM CDT 8:13 PM CDT
Nautical Twilight 6:04 AM CDT 8:42 PM CDT
Astronomical Twilight 5:34 AM CDT 9:12 PM CDT
Moon 4:45 AM CDT (8/28) 6:51 PM CDT (8/28)
Length of Visible Light 13h 40m
Length of Day
12h 51m
Waning Crescent, 4% of the Moon is Illuminated
Aug 28
Waning Crescent
Aug 30
New
Sep 5
First Quarter
Sep 13
Full
Sep 21
Last Quarter

Hourly Weather History & Observations

Time (CDT) Temp. Heat Index Dew Point Humidity Pressure Visibility Wind Dir Wind Speed Gust Speed Precip Events Conditions
12:53 AM 79.0 °F - 78.1 °F 97% 29.98 in 10.0 mi Calm Calm - N/A   Clear
1:53 AM 78.1 °F - 78.1 °F 100% 29.98 in 10.0 mi North 3.5 mph - N/A   Clear
2:53 AM 78.1 °F - 77.0 °F 96% 29.98 in 9.0 mi Calm Calm - N/A   Clear
3:53 AM 77.0 °F - 77.0 °F 100% 29.98 in 10.0 mi Calm Calm - N/A   Clear
4:53 AM 75.9 °F - 75.9 °F 100% 29.99 in 7.0 mi Calm Calm - N/A   Clear
5:42 AM 77.0 °F - 77.0 °F 100% 29.99 in 1.8 mi Calm Calm - N/A   Scattered Clouds
5:51 AM 77.0 °F - 77.0 °F 100% 30.00 in 0.8 mi Calm Calm - N/A   Mist
5:52 AM 77.0 °F - 77.0 °F 100% 30.01 in 0.8 mi Calm Calm - N/A   Mist
6:53 AM 77.0 °F - 77.0 °F 100% 30.01 in 4.0 mi Calm Calm - N/A   Clear
7:53 AM 81.0 °F 89.9 °F 80.1 °F 97% 30.01 in 4.0 mi Calm Calm - N/A   Clear
8:53 AM 84.9 °F 98.9 °F 80.1 °F 85% 30.02 in 10.0 mi East 5.8 mph - N/A   Partly Cloudy
9:13 AM 84.9 °F 98.9 °F 80.1 °F 85% 30.03 in 10.0 mi East 4.6 mph - N/A   Mostly Cloudy
9:53 AM 86.0 °F 99.3 °F 79.0 °F 79% 30.04 in 10.0 mi ESE 4.6 mph - N/A   Mostly Cloudy
10:06 AM 87.1 °F 103.2 °F 80.1 °F 80% 30.04 in 10.0 mi Variable 4.6 mph - N/A   Scattered Clouds
10:53 AM 88.0 °F 103.1 °F 79.0 °F 75% 30.05 in 10.0 mi Calm Calm - N/A   Partly Cloudy
11:53 AM 90.0 °F 102.5 °F 77.0 °F 65% 30.04 in 10.0 mi Variable 5.8 mph - N/A   Scattered Clouds
12:53 PM 93.9 °F 106.9 °F 75.9 °F 56% 30.02 in 10.0 mi Variable 3.5 mph - N/A   Partly Cloudy
1:53 PM 93.9 °F 104.0 °F 73.9 °F 52% 30.02 in 10.0 mi NE 4.6 mph - N/A   Scattered Clouds
2:53 PM 98.1 °F 109.5 °F 73.9 °F 46% 30.00 in 10.0 mi Calm Calm - N/A   Clear
3:53 PM 89.1 °F 100.2 °F 75.9 °F 65% 29.98 in 10.0 mi South 11.5 mph - N/A   Clear
4:53 PM 91.0 °F 101.6 °F 75.0 °F 59% 29.97 in 10.0 mi South 10.4 mph - N/A   Clear
5:37 PM 88.0 °F 96.5 °F 73.9 °F 63% 29.97 in 10.0 mi South 10.4 mph - N/A Thunderstorm Partly Cloudy
5:53 PM 88.0 °F 96.5 °F 73.9 °F 63% 30.00 in 10.0 mi SE 9.2 mph - N/A Thunderstorm Scattered Clouds
6:16 PM 81.0 °F 85.8 °F 73.0 °F 77% 29.99 in 10.0 mi East 11.5 mph - N/A Thunderstorm Mostly Cloudy
6:36 PM 81.0 °F 85.2 °F 72.0 °F 74% 29.96 in 10.0 mi East 8.1 mph - 0.00 in Rain Light Rain
6:53 PM 81.0 °F 85.8 °F 73.0 °F 77% 29.97 in 10.0 mi ESE 4.6 mph - 0.00 in Thunderstorm Clear
7:09 PM 81.0 °F 85.8 °F 73.0 °F 77% 29.96 in 10.0 mi Calm Calm - N/A   Partly Cloudy
7:53 PM 81.0 °F 85.8 °F 73.0 °F 77% 29.95 in 10.0 mi Calm Calm - 0.00 in   Clear
8:53 PM 80.1 °F 83.6 °F 71.1 °F 74% 29.97 in 10.0 mi East 4.6 mph - N/A   Clear
9:53 PM 79.0 °F - 73.0 °F 82% 29.99 in 10.0 mi ENE 3.5 mph - N/A   Clear
10:53 PM 75.9 °F - 73.9 °F 94% 30.00 in 10.0 mi Calm Calm - N/A   Clear
11:53 PM 75.0 °F - 73.0 °F 94% 30.01 in 10.0 mi Calm Calm - N/A   Clear